TimeCDT,TemperatureF,Dew PointF,Humidity,Sea Level PressureIn,VisibilityMPH,Wind Direction,Wind SpeedMPH,Gust SpeedMPH,PrecipitationIn,Events,Conditions,WindDirDegrees,DateUTC
12:55 AM,22.6,21.0,93,30.03,10.0,WNW,4.6,-,N/A,,Clear,300,2012-11-02 05:55:00
1:55 AM,24.4,22.3,91,30.04,10.0,Calm,Calm,-,N/A,,Clear,0,2012-11-02 06:55:00
2:55 AM,23.9,22.1,93,30.04,10.0,West,4.6,-,N/A,,Clear,280,2012-11-02 07:55:00
3:55 AM,23.4,21.4,92,30.06,10.0,WNW,4.6,-,N/A,,Clear,290,2012-11-02 08:55:00
4:55 AM,22.6,20.7,92,30.07,10.0,WNW,4.6,-,N/A,,Clear,290,2012-11-02 09:55:00
5:55 AM,21.9,20.3,93,30.09,10.0,West,5.8,-,N/A,,Clear,260,2012-11-02 10:55:00
6:55 AM,21.2,19.4,93,30.10,10.0,Calm,Calm,-,N/A,,Clear,0,2012-11-02 11:55:00
7:55 AM,23.0,21.2,93,30.12,10.0,West,4.6,-,N/A,,Partly Cloudy,270,2012-11-02 12:55:00
8:55 AM,28.4,24.8,86,30.13,10.0,West,4.6,-,N/A,,Partly Cloudy,270,2012-11-02 13:55:00
9:55 AM,34.3,28.0,78,30.14,10.0,NNW,5.8,-,N/A,,Clear,330,2012-11-02 14:55:00
10:55 AM,37.4,24.8,60,30.15,10.0,North,5.8,-,N/A,,Partly Cloudy,360,2012-11-02 15:55:00
11:55 AM,39.2,24.8,56,30.16,10.0,Calm,Calm,-,N/A,,Partly Cloudy,0,2012-11-02 16:55:00
12:55 PM,42.8,23.0,46,30.15,10.0,Calm,Calm,-,N/A,,Scattered Clouds,0,2012-11-02 17:55:00
1:55 PM,44.2,21.0,40,30.13,10.0,North,5.8,-,N/A,,Clear,360,2012-11-02 18:55:00
2:55 PM,44.6,21.2,39,30.12,10.0,Calm,Calm,-,N/A,,Mostly Cloudy,0,2012-11-02 19:55:00
3:55 PM,46.4,19.4,34,30.12,10.0,Variable,3.5,-,N/A,,Mostly Cloudy,0,2012-11-02 20:55:00
4:55 PM,44.6,21.6,40,30.12,10.0,Calm,Calm,-,N/A,,Clear,0,2012-11-02 21:55:00
5:55 PM,37.8,23.0,55,30.13,10.0,Calm,Calm,-,N/A,,Clear,0,2012-11-02 22:55:00
6:55 PM,35.1,22.6,61,30.14,10.0,NE,3.5,-,N/A,,Clear,50,2012-11-02 23:55:00
7:55 PM,34.0,21.7,61,30.15,10.0,Calm,Calm,-,N/A,,Scattered Clouds,0,2012-11-03 00:55:00
8:55 PM,30.0,22.8,75,30.17,10.0,Calm,Calm,-,N/A,,Mostly Cloudy,0,2012-11-03 01:55:00
9:55 PM,31.8,25.0,76,30.17,10.0,Calm,Calm,-,N/A,,Overcast,0,2012-11-03 02:55:00
10:55 PM,29.8,23.7,78,30.19,10.0,Calm,Calm,-,N/A,,Overcast,0,2012-11-03 03:55:00
11:55 PM,28.4,24.1,84,30.19,10.0,Calm,Calm,-,N/A,,Overcast,0,2012-11-03 04:55:00